Regional Weather Roundup
Issued by NWS Newport/Morehead, NC

Current Version | Previous Version | Text Only | Print | Product List | Glossary On
Versions: 1 2 3 4 5 6 7 8 9 10 11 12 13 14 15 16 17 18 19 20 21 22 23 24 25 26 27 28 29 30 31 32 33 34 35 36 37 38 39 40 41 42 43 44 45 46 47 48 49 50
958 ASUS42 KMHX 241925 RWRMHX WEATHER ROUNDUP FOR EASTERN NORTH CAROLINA NATIONAL WEATHER SERVICE NEWPORT/MOREHEAD CITY NC 300 PM EDT MON APR 24 2017 NOTE: "FAIR" INDICATES FEW OR NO CLOUDS BELOW 12,000 FEET WITH NO SIGNIFICANT WEATHER AND/OR OBSTRUCTIONS TO VISIBILITY NCZ015>017-031-032-045>047-102-103-242000- NORTH COAST CITY SKY/WX TMP DP RH WIND PRES REMARKS EDENTON LGT RAIN 70 67 91 E8 29.82F ELIZABETH CITY CLOUDY 67 66 97 E9 29.84F KITTY HAWK CLOUDY 67 64 91 CALM 29.83F MANTEO CLOUDY 71 64 78 SE12 29.84F $$ NCZ045>047-081-094-103-104-242000- CENTRAL COAST CITY SKY/WX TMP DP RH WIND PRES REMARKS FRISCO LGT RAIN 68 65 90 SE15 29.80F FOG $$ NCZ095-097-098-100-101-242000- SOUTHERN COAST CITY SKY/WX TMP DP RH WIND PRES REMARKS BEAUFORT CLOUDY 70 67 90 SE8 29.74F CEDAR ISLAND NOT AVBL JACKSONVILLE RAIN 68 67 96 SE13G21 29.72F FOG PINEY ISLAND CLOUDY N/A N/A N/A E21G33 29.77F FOG WILMINGTON HVY RAIN 67 66 97 SE9G20 29.70F VSB 1 $$ NCZ011>013-027>030-043-044-078>080-089-090>093-098-242000- COASTAL PLAIN CITY SKY/WX TMP DP RH WIND PRES REMARKS AHOSKIE HVY RAIN 63 62 97 N8 29.83F CLINTON HVY RAIN 63 63 100 CALM 29.75F ELIZABETHTOWN RAIN 64 64 100 E5 29.71F GOLDSBORO LGT RAIN 64 64 100 E7 29.74F FOG GREENVILLE RAIN 68 68 100 E6 29.81F HAVELOCK LGT RAIN 68 65 90 E10 29.77F FOG KENANSVILLE RAIN 64 64 100 E3 29.75F FOG KINSTON HVY RAIN 66 64 94 CALM 29.78F NEW BERN RAIN 67 66 97 SE10 29.77F FOG RICHLANDS LGT RAIN 65 64 97 E6 29.75F FOG ROCKY MOUNT RAIN 62 62 100 NE14 29.79F FOG WASHINGTON DRIZZLE 67 65 94 E6 29.78F WHITEVILLE LGT RAIN 65 64 96 NE5 29.69F $$ AMZ130-135-150-152-154-156-158-170-250-252-270-ANZ085-086-088-633-658-670-242000- MARINE OBSERVATIONS STATION/POSITION TIME TEMP WIND PRES WAVE SWELL AIR SEA DIR/SP/G HT/PER HT/PER (UTC) (F) (DEG/KT/KT) (MB) (FT/S) (FT/S) CHESAPEAKE LIGHT NOT AVBL 64 E VA BEACH 1850 60 54 80/ 10/ 10 1012.6 5/ 6 5/ 6 DUCK 1900 63 60 90/ 14/ 17 1009.9 2 E DUCK 1900 59 N/A 4/ 7 2/13 OREGON INLET 1900 67 59 90/ 9/ 13 1009.9 13E OREGON INLT 1848 57 N/A 6/ 7 7/ 7 HATTERAS CG 1900 68 67 110/ 13/ 19 1008.8 DIAMOND BUOY 1850 75 79 130/ 27/ 33 1008.4 8/ 7 3/11 CAPE LOOKOUT 1900 72 120/ 26/ 31 1006.5 BEAUFORT LAB 1900 70 65 140/ 8/ 11 1006.1 30 SE NEW RVR IN 1908 69 170/ 25/ 39 1005.4 30 SE NEW RVR IN 1843 71 N/A 10/ 7 2/11 27 SE WRIGHTSVLE 1908 69 72 160/ 21/ 33 1004.7 5 SE WRIGHTSVLE 1908 68 69 120/ 16/ 29 1005.1 225 S CAPE HAT 1850 67 75 60/ 21/ 25 1007.0 8/ 7 2/11 41 SE CHARLESTON 1900 71 74 190/ 16/ 21 1002.9 $$

USA.gov is the U.S. government's official web portal to all federal, state and local government web resources and services.